Home > Weather > Dublin > Past weeks

Flag for Ireland Past Weather in Dublin, Ireland — Yesterday and Last 2 Weeks

Now
66 °F

Broken clouds.


Feels Like: 66 °F
Forecast: 55 / 69 °F
Wind: 14 mph from Southwest

Location: Dublin Airport

Current Time: Jul 23, 2016 at 2:12:36 PM

Latest Report: Jul 23, 2016 at 1:30 PM


Visibility: N/A

Pressure: 30.07 "Hg

Humidity: 68%

Dew Point: 55 °F

Location of DublinLocation

Past Weather in Dublin — Graph

°F

Dublin Temperature Yesterday

Maximum temperature yesterday: 64 °F (at 12:00 PM)
Minimum temperature yesterday: 57 °F (at 8:00 AM)
Average temperature yesterday: 62 °F

High & Low Weather Summary for the Past Weeks

 TemperatureHumidityPressure
High79 °F (Jul 18, 5:00 PM)100% (Jul 12, 4:30 AM)30.30 "Hg (Jul 12, 4:30 AM)
Low46 °F (Jul 12, 2:30 AM)50% (Jul 17, 1:30 PM)29.42 "Hg (Jul 10, 6:30 PM)
Average62 °F77%29.97 "Hg
* Reported Jul 8 1:00 PM — Jul 23 1:00 PM, Dublin, Weather by CustomWeather, © 2016

Note: Actual official high and low records may vary slightly from our data, if they occured in-between our weather recording intervals... More about our weather records

Advertising

Dublin Weather History for the Previous 24 Hours

Scroll right to see more
 ConditionsComfort  
Time TempWeatherWind HumidityBarometerVisibility
1:00 PM
Sat, Jul 23
64 °FBroken clouds.13 mph68%30.07 "HgN/A
12:30 PM66 °FBroken clouds.13 mph60%30.07 "HgN/A
12:00 PM66 °FBroken clouds.9 mph64%30.07 "HgN/A
11:30 AM66 °FPartly sunny.7 mph60%30.07 "HgN/A
11:00 AM66 °FPartly sunny.9 mph64%30.09 "HgN/A
10:30 AM66 °FPartly sunny.10 mph60%30.09 "HgN/A
10:00 AM66 °FPartly sunny.6 mph60%30.09 "HgN/A
9:30 AM64 °FPartly sunny.6 mph68%30.09 "HgN/A
9:00 AM63 °FPartly sunny.5 mph73%30.09 "HgN/A
8:30 AM63 °FPartly sunny.6 mph77%30.09 "HgN/A
8:00 AM61 °FPartly sunny.5 mph83%30.09 "HgN/A
7:30 AM61 °FPartly sunny.3 mph83%30.09 "HgN/A
7:00 AM59 °FPartly sunny.3 mph88%30.09 "HgN/A
6:30 AM59 °FPartly sunny.2 mph82%30.09 "HgN/A
6:00 AM59 °FPassing clouds.5 mph82%30.09 "HgN/A
5:30 AM59 °FPassing clouds.2 mph82%30.09 "HgN/A
5:00 AM59 °FPassing clouds.3 mph82%30.09 "HgN/A
4:30 AM59 °FPassing clouds.5 mph82%30.09 "HgN/A
4:00 AM59 °FPassing clouds.5 mph82%30.09 "HgN/A
3:30 AM59 °FPassing clouds.5 mph82%30.09 "HgN/A
3:00 AM61 °FPassing clouds.3 mph77%30.12 "HgN/A
2:30 AM59 °FPassing clouds.5 mph82%30.12 "HgN/A
2:00 AM61 °FPassing clouds.5 mph77%30.12 "HgN/A
1:30 AM61 °FPassing clouds.3 mph77%30.12 "HgN/A
1:00 AM61 °FPassing clouds.3 mph77%30.12 "HgN/A
12:30 AM61 °FPassing clouds.1 mph77%30.12 "HgN/A
12:00 AM59 °FPassing clouds.2 mph82%30.12 "HgN/A
11:30 PM
Fri, Jul 22
59 °FPassing clouds.2 mph82%30.12 "HgN/A
11:00 PM59 °FPassing clouds.3 mph82%30.12 "HgN/A
10:30 PM59 °FPartly sunny.3 mph82%30.12 "HgN/A
10:00 PM61 °FPartly sunny.2 mph77%30.12 "HgN/A
9:30 PM61 °FPartly sunny.3 mph77%30.12 "HgN/A
9:00 PM61 °FPartly sunny.3 mph77%30.12 "HgN/A
8:30 PM61 °FPartly sunny.5 mph72%30.12 "HgN/A
8:00 PM63 °FPartly sunny.6 mph68%30.12 "HgN/A
7:30 PM64 °FPartly sunny.7 mph64%30.12 "HgN/A
7:00 PM63 °FPartly sunny.8 mph68%30.09 "HgN/A
6:30 PM64 °FBroken clouds.7 mph64%30.09 "HgN/A
6:00 PM63 °FBroken clouds.10 mph68%30.09 "HgN/A
5:30 PM64 °FBroken clouds.8 mph60%30.09 "HgN/A
5:00 PM64 °FBroken clouds.10 mph60%30.09 "HgN/A
4:30 PM64 °FBroken clouds.10 mph60%30.09 "HgN/A
4:00 PM64 °FBroken clouds.10 mph64%30.09 "HgN/A
3:30 PM64 °FPartly sunny.10 mph64%30.09 "HgN/A
3:00 PM64 °FPartly sunny.8 mph64%30.07 "HgN/A
2:30 PM64 °FBroken clouds.12 mph68%30.07 "HgN/A
2:00 PM64 °FPartly sunny.13 mph68%30.07 "HgN/A
Weather by CustomWeather, © 2016

See weather overviewHow to use our weather pages